ASTRA 1KR

Last updated on Sun Dec 14 2025 00:02:48 GMT+0000 (Coordinated Universal Time)

1 29055U 06012A 25347.20752834 .00000134 00000+0 00000+0 0 9998 2 29055 0.0208 336.7493 0005900 275.8104 283.4947 1.00273707 43831
UTC large
Height (km)
Speed (km/s)
/
Latitude / Longitude
Inclination (degrees)
Orbital Period (minutes)
Azimuth
Elevation
Range (km)
Doppler Factor

Next 0 passes for location: London (51.5072 / 0.1276)

Sorry there are no passes over London.